Terug naar catalogus

ARIANE 44LP DEB

ActiefHEO
NORAD 27047·DEBRIS·🇫🇷 France

Gelanceerd Aug 8, 1989 vanaf Guiana Space Centre

Loading…

Volgende Passages (komende 24 uur)

TLE

VersSource: Space-Track

Epoch: Sep 11, 2026, 17:40 UTC

1 27047U 89062K   26254.73624053  .00000191  00000-0  14191-2 0  9993
2 27047   8.8407 161.9770 6785398 199.5745 110.7195  2.79178581 15925

Volg ARIANE 44LP DEB in realtime met AllMySat

Download on the App Store